Change the Weather History Date:

Saturday, March 1, 2014

  Actual Average Record
Temperature  
Mean Temperature 58 °F -  
Max Temperature 66 °F 59 °F 71 °F (2013)
Min Temperature 50 °F 40 °F 32 °F (2007)
Degree Days  
Heating Degree Days 7    
Growing Degree Days 8 (Base 50)    
Moisture  
Dew Point 54 °F    
Average Humidity 92    
Maximum Humidity 100    
Minimum Humidity 64    
Precipitation  
Precipitation 0.02 in - - ()
Sea Level Pressure  
Sea Level Pressure 29.66 in    
Wind  
Wind Speed 14 mph (ESE)    
Max Wind Speed 29 mph    
Max Gust Speed 33 mph    
Visibility 10 miles    
Events Rain    
Averages and records for this station are not official NWS values.
T = Trace of Precipitation, MM = Missing Value Source: NWS Daily Summary

Daily Weather History Graph

Daily Weather History Graph

Search for Another Location

Airport or City:

Trip Planner

Search our weather history database for the weather conditions in past years. The results will help you decide how hot, cold, wet, or windy it might be!

Date:

Astronomy

Mar. 01, 2014 Rise Set
Actual Time 6:39 AM PST 6:01 PM PST
Civil Twilight 6:13 AM PST 6:27 PM PST
Nautical Twilight 5:42 AM PST 6:58 PM PST
Astronomical Twilight 5:11 AM PST 7:28 PM PST
Moon 6:37 AM PST (3/1) 6:53 PM PST (3/1)
Length of Visible Light 12h 14m
Length of Day
11h 21m
New Moon, 0% of the Moon is Illuminated
Mar 1
New Moon
Mar 8
First Quarter
Mar 16
Full
Mar 23
Last Quarter
Mar 30
New

Hourly Weather History & Observations

Time (PST) Temp. Dew Point Humidity Pressure Visibility Wind Dir Wind Speed Gust Speed Precip Events Conditions
12:31 AM 53.6 °F 53.6 °F 100% 29.52 in 10.0 mi ESE 16.1 mph - N/A Rain Light Rain
12:52 AM 51.8 °F 51.8 °F 100% 29.52 in 10.0 mi ESE 16.1 mph - N/A   Clear
12:58 AM 52.7 °F 52.5 °F 99% 29.54 in 10.0 mi ESE 13.8 mph - 0.00 in   Clear
1:58 AM 52.9 °F 52.9 °F 100% 29.56 in 10.0 mi ESE 16.1 mph - 0.00 in   Scattered Clouds
2:58 AM 53.2 °F 53.2 °F 100% 29.56 in 10.0 mi ESE 18.4 mph - N/A   Overcast
3:13 AM 53.6 °F 53.6 °F 100% 29.54 in 10.0 mi ESE 15.0 mph - N/A Rain Light Rain
3:25 AM 53.6 °F 53.6 °F 100% 29.54 in 10.0 mi ESE 15.0 mph - N/A   Scattered Clouds
3:58 AM 53.1 °F 53.1 °F 100% 29.56 in 10.0 mi ESE 15.0 mph - 0.00 in   Partly Cloudy
4:58 AM 51.8 °F 51.8 °F 100% 29.57 in 10.0 mi East 9.2 mph - N/A   Partly Cloudy
5:58 AM 50.7 °F 50.7 °F 100% 29.59 in 10.0 mi North 5.8 mph - N/A   Partly Cloudy
6:58 AM 51.6 °F 51.6 °F 100% 29.61 in 10.0 mi NNE 10.4 mph - 0.00 in Rain Light Rain
7:24 AM 51.8 °F 51.8 °F 100% 29.61 in 10.0 mi NNE 11.5 mph - N/A   Clear
7:58 AM 53.6 °F 53.4 °F 99% 29.65 in 10.0 mi NE 11.5 mph - 0.00 in   Clear
8:58 AM 53.6 °F 53.6 °F 100% 29.67 in 10.0 mi NE 9.2 mph - 0.00 in   Clear
9:58 AM 54.5 °F 54.3 °F 99% 29.69 in 10.0 mi East 11.5 mph - 0.01 in Rain Light Rain
10:31 AM 55.4 °F 55.4 °F 100% 29.67 in 10.0 mi East 9.2 mph - N/A   Partly Cloudy
10:58 AM 57.0 °F 56.7 °F 99% 29.70 in 10.0 mi ENE 8.1 mph - 0.01 in   Clear
11:58 AM 62.1 °F 56.3 °F 81% 29.70 in 10.0 mi ESE 18.4 mph 25.3 mph N/A   Partly Cloudy
12:58 PM 65.1 °F 54.5 °F 68% 29.69 in 10.0 mi ESE 28.8 mph 33.4 mph N/A   Clear
1:58 PM 66.7 °F 54.3 °F 64% 29.69 in 10.0 mi SE 20.7 mph - N/A   Mostly Cloudy
2:58 PM 65.7 °F 54.7 °F 68% 29.69 in 10.0 mi SE 19.6 mph 29.9 mph N/A   Scattered Clouds
3:58 PM 64.0 °F 51.4 °F 64% 29.69 in 10.0 mi SE 23.0 mph 32.2 mph N/A   Clear
4:58 PM 62.4 °F 53.4 °F 72% 29.71 in 10.0 mi SE 16.1 mph - N/A   Mostly Cloudy
5:58 PM 59.4 °F 55.8 °F 88% 29.73 in 10.0 mi SE 18.4 mph - N/A   Mostly Cloudy
6:58 PM 58.5 °F 54.1 °F 86% 29.77 in 10.0 mi SE 15.0 mph - N/A   Mostly Cloudy
7:58 PM 58.1 °F 53.1 °F 83% 29.79 in 10.0 mi SE 12.7 mph - N/A   Mostly Cloudy
8:58 PM 56.7 °F 56.3 °F 99% 29.80 in 10.0 mi ESE 8.1 mph - N/A   Overcast
9:58 PM 57.6 °F 54.9 °F 91% 29.83 in 10.0 mi South 2.3 mph - N/A   Overcast
10:58 PM 56.3 °F 55.9 °F 99% 29.85 in 10.0 mi Calm Calm - N/A   Mostly Cloudy
11:58 PM 52.2 °F 52.2 °F 100% 29.84 in 10.0 mi NE 4.6 mph - N/A   Clear